Погода в Шланге

Россия / Республика Татарстан     54°48′48″N   47°23′35″E
темп.,
°C
ветер,
м/с
пор.,
м/с
влажн.,
%
обл.,
%
осадки,
мм/ч
давл.,
гПа
погр.,
м
27 февраля, сб
сб2700:00−4ююз3898100 3.4 997224
03:00+1з61198100 3.6 996484
06:000з51098100 1.0 995520
09:000з61198100 2.0 995613
12:00−2ссз4698100 0.9 996301
15:00−8с61093100 1.3 998409
18:00−11с61193100 0.1 1001563
21:00−14ссз61193100 0.3 1004421
28 февраля, вс
вс2800:00−15ссз61194100 0.1 1006369
03:00−18ссз51196100 0.1 1008291
06:00−19сз51097100 0.0 1009256
09:00−18ссз5109487 0.0 1010306
12:00−14ссз599174 0.0 1011423
15:00−13ссз489078 0.0 1013501
18:00−17ссз479681 0.0 1014113
21:00−18ссз369890 0.1 1017106
1 марта, пн
пн100:00−20сз3410088 0.0 101946
03:00−21сз349963 0.0 102037
06:00−22ссз339919 0.0 102129
09:00−20ссз239710 0.0 102399
12:00−15сз138824 0.0 1023260
15:00−12з239353 0.0 1023107
18:00−16з349694 0.0 102238
21:00−17юз349653 0.0 102262
2 марта, вт
вт200:00−16юз489857 0.0 1019139
03:00−13юз5119679 0.1 1015230
06:00−11юз61294100 0.1 1011332
09:00−5юз71394100 0.6 1007577
12:00−2юз71195100 0.6 1004622
15:00−1юз5996100 1.1 1002540
18:00−1юз2598100 1.1 1001183
21:00−2сз4897100 1.9 1001366
3 марта, ср
ср300:00−2сз61197100 0.9 1001552
03:00−4сз51194100 1.3 1002369
06:00−5сз599599 0.1 1003401
09:00−5сз599499 0.2 1004435
12:00−3сз699196 0.1 1005750
15:00−3ссз599298 0.3 1006723
18:00−4сз499697 0.3 1007361
21:00−5сз4119688 0.4 1009433